Tetonia, ID

9:06 AM MST on February 07, 2016 (GMT -0700)
Driggs

Weather History for KDIJ - April, 2013

Change the Weather History Date:

Wednesday, April 3, 2013

  Actual Average (KRXE) Record (KRXE)
Temperature  
Mean Temperature 42 °F 41 °F  
Max Temperature 55 °F 52 °F 65 °F (2004)
Min Temperature 30 °F 30 °F 13 °F (2008)
Degree Days  
Heating Degree Days 22 24  
Month to date heating degree days 74  
Since 1 July heating degree days 7003  
Cooling Degree Days 0 0  
Month to date cooling degree days 0  
Year to date cooling degree days 0  
Moisture  
Dew Point 30 °F    
Average Humidity 62    
Maximum Humidity 85    
Minimum Humidity 42    
Precipitation  
Precipitation 0.00 in 0.04 in 0.35 in (2009)
Month to date precipitation 0.12  
Year to date precipitation 2.75  
Sea Level Pressure  
Sea Level Pressure 30.05 in    
Wind  
Wind Speed 8 mph (ESE)    
Max Wind Speed 13 mph    
Max Gust Speed -    
Visibility 10 miles    
Events      
T = Trace of Precipitation, MM = Missing Value Source: NWS Daily Summary

Daily Weather History Graph

Daily Weather History Graph

Search for Another Location

Airport or City:

Trip Planner

Search our weather history database for the weather conditions in past years. The results will help you decide how hot, cold, wet, or windy it might be!

Date:

Astronomy

Apr. 03, 2013 Rise Set
Actual Time 7:01 AM MDT 7:54 PM MDT
Civil Twilight 6:32 AM MDT 8:23 PM MDT
Nautical Twilight 5:58 AM MDT 8:58 PM MDT
Astronomical Twilight 5:21 AM MDT 9:34 PM MDT
Moon 2:57 AM MDT (4/3) 12:58 PM MDT (4/3)
Length of Visible Light 13h 50m
Length of Day
12h 52m
Last Quarter, 44% of the Moon is Illuminated
Apr 3
Last Quarter
Apr 10
New
Apr 18
First Quarter
Apr 25
Full
May 2
Last Quarter

Hourly Weather History & Observations

Time (MDT) Temp. Windchill Dew Point Humidity Pressure Visibility Wind Dir Wind Speed Gust Speed Precip Events Conditions
12:56 AM 34.0 °F 26.0 °F 24.1 °F 67% 30.02 in 10.0 mi East 10.4 mph - N/A   Partly Cloudy
1:56 AM 36.0 °F 29.6 °F 26.1 °F 67% 30.00 in 10.0 mi ESE 8.1 mph - N/A   Partly Cloudy
2:56 AM 37.9 °F 32.1 °F 30.0 °F 73% 30.00 in 10.0 mi SE 8.1 mph - N/A   Overcast
3:56 AM 37.9 °F 32.7 °F 29.1 °F 71% 29.99 in 10.0 mi SE 6.9 mph - N/A   Mostly Cloudy
4:56 AM 36.0 °F 31.1 °F 28.0 °F 73% 29.99 in 10.0 mi SE 5.8 mph - N/A   Partly Cloudy
5:56 AM 31.1 °F 24.5 °F 27.1 °F 85% 30.04 in 10.0 mi NE 6.9 mph - N/A   Clear
6:56 AM 30.0 °F 26.5 °F 26.1 °F 85% 30.08 in 10.0 mi NE 3.5 mph - N/A   Clear
7:56 AM 34.9 °F 29.9 °F 28.0 °F 76% 30.08 in 10.0 mi SSE 5.8 mph - N/A   Mostly Cloudy
8:56 AM 39.9 °F 33.9 °F 30.0 °F 68% 30.08 in 10.0 mi SSE 9.2 mph - N/A   Mostly Cloudy
9:56 AM 46.9 °F - 30.0 °F 52% 30.05 in 10.0 mi South 11.5 mph - N/A   Mostly Cloudy
10:56 AM 50.0 °F - 29.1 °F 45% 30.07 in 10.0 mi SSW 6.9 mph - N/A   Mostly Cloudy
11:56 AM 50.9 °F - 31.1 °F 47% 30.08 in 10.0 mi NNW 10.4 mph - N/A   Scattered Clouds
12:56 PM 52.0 °F - 32.9 °F 48% 30.08 in 10.0 mi North 9.2 mph - N/A   Partly Cloudy
1:56 PM 52.0 °F - 32.0 °F 47% 30.06 in 10.0 mi Variable 4.6 mph - N/A   Clear
2:56 PM 52.9 °F - 34.9 °F 50% 30.04 in 10.0 mi ENE 9.2 mph - N/A   Clear
3:56 PM 52.0 °F - 34.9 °F 52% 30.04 in 10.0 mi East 6.9 mph - N/A   Mostly Cloudy
4:56 PM 55.9 °F - 32.9 °F 42% 30.02 in 10.0 mi East 6.9 mph - N/A   Partly Cloudy
5:56 PM 52.0 °F - 34.9 °F 52% 30.05 in 10.0 mi ENE 5.8 mph - N/A   Scattered Clouds
6:56 PM 50.9 °F - 29.1 °F 43% 30.08 in 10.0 mi West 10.4 mph - N/A   Mostly Cloudy
7:56 PM 43.9 °F 40.5 °F 32.9 °F 65% 30.07 in 10.0 mi East 5.8 mph - N/A   Partly Cloudy
8:56 PM 41.9 °F 38.2 °F 32.9 °F 70% 30.08 in 10.0 mi Variable 5.8 mph - N/A   Scattered Clouds
9:56 PM 43.9 °F 37.5 °F 32.9 °F 65% 30.04 in 10.0 mi East 12.7 mph - 0.00 in   Mostly Cloudy
10:56 PM 38.8 °F 33.8 °F 31.1 °F 74% 30.04 in 10.0 mi SSE 6.9 mph - N/A   Partly Cloudy
11:56 PM 39.9 °F 35.1 °F 30.0 °F 68% 30.03 in 10.0 mi SSE 6.9 mph - N/A   Clear